"FRM_AIS_EDR_2062.DAT           ",2005-08-23T02:41:30.68 ,"1/0072844885.36431",    0,    0,  213808,"AIS","B1","B1","B0","B0","PISd",0,0,0,0,"B1", 0,15,   0, 0,    0,"AIS","N/A    ","OK ","OK ",    001173.661,    -065.333,    -171.524,    0014.655,    0047.627
"FRM_AIS_EDR_2062.DAT           ",2005-08-23T02:41:38.22 ,"1/0072844893.06494",    0,    1,  213808,"AIS","B1","B1","B0","B0","PISd",0,0,0,0,"B1", 0,15,   0, 0,    0,"AIS","N/A    ","OK ","OK ",    001163.286,    -065.008,    -171.444,    0014.662,    0047.463
"FRM_AIS_EDR_2062.DAT           ",2005-08-23T02:41:45.76 ,"1/0072844900.42093",    0,    2,  213808,"AIS","B1","B1","B0","B0","PISd",0,0,0,0,"B1", 0,15,   0, 0,    0,"AIS","N/A    ","OK ","OK ",    001152.942,    -064.681,    -171.367,    0014.669,    0047.300
"FRM_AIS_EDR_2062.DAT           ",2005-08-23T02:41:53.31 ,"1/0072844908.12157",    0,    3,  213808,"AIS","B1","B1","B0","B0","PISd",0,0,0,0,"B1", 0,15,   0, 0,    0,"AIS","N/A    ","OK ","OK ",    001142.630,    -064.352,    -171.292,    0014.676,    0047.138
"FRM_AIS_EDR_2062.DAT           ",2005-08-23T02:42:00.85 ,"1/0072844915.47756",    0,    4,  213808,"AIS","B1","B1","B0","B0","PISd",0,0,0,0,"B1", 0,15,   0, 0,    0,"AIS","N/A    ","OK ","OK ",    001132.351,    -064.022,    -171.220,    0014.683,    0046.976
"FRM_AIS_EDR_2062.DAT           ",2005-08-23T02:42:08.39 ,"1/0072844923.17819",    0,    5,  213808,"AIS","B1","B1","B0","B0","PISd",0,0,0,0,"B1", 0,15,   0, 0,    0,"AIS","N/A    ","OK ","OK ",    001122.104,    -063.690,    -171.149,    0014.690,    0046.815
"FRM_AIS_EDR_2062.DAT           ",2005-08-23T02:42:15.94 ,"1/0072844930.53419",    0,    6,  213808,"AIS","B1","B1","B0","B0","PISd",0,0,0,0,"B1", 0,15,   0, 0,    0,"AIS","N/A    ","OK ","OK ",    001111.890,    -063.357,    -171.080,    0014.697,    0046.654
"FRM_AIS_EDR_2062.DAT           ",2005-08-23T02:42:23.48 ,"1/0072844938.23482",    0,    7,  213808,"AIS","B1","B1","B0","B0","PISd",0,0,0,0,"B1", 0,15,   0, 0,    0,"AIS","N/A    ","OK ","OK ",    001101.711,    -063.022,    -171.012,    0014.703,    0046.494
"FRM_AIS_EDR_2062.DAT           ",2005-08-23T02:42:31.02 ,"1/0072844945.59081",    0,    8,  213808,"AIS","B1","B1","B0","B0","PISd",0,0,0,0,"B1", 0,15,   0, 0,    0,"AIS","N/A    ","OK ","OK ",    001091.565,    -062.685,    -170.947,    0014.709,    0046.335
"FRM_AIS_EDR_2062.DAT           ",2005-08-23T02:42:38.57 ,"1/0072844953.29145",    0,    9,  213808,"AIS","B1","B1","B0","B0","PISd",0,0,0,0,"B1", 0,15,   0, 0,    0,"AIS","N/A    ","OK ","OK ",    001081.454,    -062.347,    -170.883,    0014.716,    0046.177
"FRM_AIS_EDR_2062.DAT           ",2005-08-23T02:42:46.11 ,"1/0072844960.64744",    0,   10,  213808,"AIS","B1","B1","B0","B0","PISd",0,0,0,0,"B1", 0,15,   0, 0,    0,"AIS","N/A    ","OK ","OK ",    001071.379,    -062.007,    -170.822,    0014.722,    0046.019
"FRM_AIS_EDR_2062.DAT           ",2005-08-23T02:42:53.65 ,"1/0072844968.34807",    0,   11,  213808,"AIS","B1","B1","B0","B0","PISd",0,0,0,0,"B1", 0,15,   0, 0,    0,"AIS","N/A    ","OK ","OK ",    001061.339,    -061.666,    -170.761,    0014.728,    0045.863
"FRM_AIS_EDR_2062.DAT           ",2005-08-23T02:43:01.20 ,"1/0072844976.04871",    0,   12,  213808,"AIS","B1","B1","B0","B0","PISd",0,0,0,0,"B1", 0,15,   0, 0,    0,"AIS","N/A    ","OK ","OK ",    001051.336,    -061.323,    -170.703,    0014.734,    0045.707
"FRM_AIS_EDR_2062.DAT           ",2005-08-23T02:43:08.74 ,"1/0072844983.40470",    0,   13,  213808,"AIS","B1","B1","B0","B0","PISd",0,0,0,0,"B1", 0,15,   0, 0,    0,"AIS","N/A    ","OK ","OK ",    001041.369,    -060.979,    -170.645,    0014.740,    0045.552
"FRM_AIS_EDR_2062.DAT           ",2005-08-23T02:43:16.28 ,"1/0072844991.10533",    0,   14,  213808,"AIS","B1","B1","B0","B0","PISd",0,0,0,0,"B1", 0,15,   0, 0,    0,"AIS","N/A    ","OK ","OK ",    001031.440,    -060.633,    -170.590,    0014.746,    0045.397
"FRM_AIS_EDR_2062.DAT           ",2005-08-23T02:43:23.83 ,"1/0072844998.46133",    0,   15,  213808,"AIS","B1","B1","B0","B0","PISd",0,0,0,0,"B1", 0,15,   0, 0,    0,"AIS","N/A    ","OK ","OK ",    001021.549,    -060.285,    -170.536,    0014.751,    0045.244
"FRM_AIS_EDR_2062.DAT           ",2005-08-23T02:43:31.37 ,"1/0072845006.16196",    0,   16,  213808,"AIS","B1","B1","B0","B0","PISd",0,0,0,0,"B1", 0,15,   0, 0,    0,"AIS","N/A    ","OK ","OK ",    001011.696,    -059.936,    -170.483,    0014.757,    0045.092
"FRM_AIS_EDR_2062.DAT           ",2005-08-23T02:43:38.91 ,"1/0072845013.51795",    0,   17,  213808,"AIS","B1","B1","B0","B0","PISd",0,0,0,0,"B1", 0,15,   0, 0,    0,"AIS","N/A    ","OK ","OK ",    001001.883,    -059.585,    -170.431,    0014.762,    0044.941
"FRM_AIS_EDR_2062.DAT           ",2005-08-23T02:43:46.46 ,"1/0072845021.21859",    0,   18,  213808,"AIS","B1","B1","B0","B0","PISd",0,0,0,0,"B1", 0,15,   0, 0,    0,"AIS","N/A    ","OK ","OK ",    000992.109,    -059.232,    -170.381,    0014.768,    0044.791
"FRM_AIS_EDR_2062.DAT           ",2005-08-23T02:43:54.00 ,"1/0072845028.57458",    0,   19,  213808,"AIS","B1","B1","B0","B0","PISd",0,0,0,0,"B1", 0,15,   0, 0,    0,"AIS","N/A    ","OK ","OK ",    000982.375,    -058.878,    -170.333,    0014.773,    0044.642
"FRM_AIS_EDR_2062.DAT           ",2005-08-23T02:44:01.54 ,"1/0072845036.27521",    0,   20,  213808,"AIS","B1","B1","B0","B0","PISd",0,0,0,0,"B1", 0,15,   0, 0,    0,"AIS","N/A    ","OK ","OK ",    000972.682,    -058.523,    -170.285,    0014.778,    0044.494
"FRM_AIS_EDR_2062.DAT           ",2005-08-23T02:44:09.09 ,"1/0072845043.63121",    0,   21,  213808,"AIS","B1","B1","B0","B0","PISd",0,0,0,0,"B1", 0,15,   0, 0,    0,"AIS","N/A    ","OK ","OK ",    000963.030,    -058.165,    -170.239,    0014.783,    0044.348
"FRM_AIS_EDR_2062.DAT           ",2005-08-23T02:44:16.63 ,"1/0072845051.33184",    0,   22,  213808,"AIS","B1","B1","B0","B0","PISd",0,0,0,0,"B1", 0,15,   0, 0,    0,"AIS","N/A    ","OK ","OK ",    000953.420,    -057.806,    -170.194,    0014.788,    0044.203
"FRM_AIS_EDR_2062.DAT           ",2005-08-23T02:44:24.17 ,"1/0072845059.03247",    0,   23,  213808,"AIS","B1","B1","B0","B0","PISd",0,0,0,0,"B1", 0,15,   0, 0,    0,"AIS","N/A    ","OK ","OK ",    000943.852,    -057.446,    -170.150,    0014.793,    0044.059
"FRM_AIS_EDR_2062.DAT           ",2005-08-23T02:44:31.72 ,"1/0072845066.38847",    0,   24,  213808,"AIS","B1","B1","B0","B0","PISd",0,0,0,0,"B1", 0,15,   0, 0,    0,"AIS","N/A    ","OK ","OK ",    000934.328,    -057.084,    -170.107,    0014.798,    0043.916
"FRM_AIS_EDR_2062.DAT           ",2005-08-23T02:44:39.26 ,"1/0072845074.08910",    0,   25,  213808,"AIS","B1","B1","B0","B0","PISd",0,0,0,0,"B1", 0,15,   0, 0,    0,"AIS","N/A    ","OK ","OK ",    000924.847,    -056.720,    -170.066,    0014.803,    0043.775
"FRM_AIS_EDR_2062.DAT           ",2005-08-23T02:44:46.80 ,"1/0072845081.44509",    0,   26,  213808,"AIS","B1","B1","B0","B0","PISd",0,0,0,0,"B1", 0,15,   0, 0,    0,"AIS","N/A    ","OK ","OK ",    000915.410,    -056.355,    -170.025,    0014.808,    0043.635
"FRM_AIS_EDR_2062.DAT           ",2005-08-23T02:44:54.35 ,"1/0072845089.14573",    0,   27,  213808,"AIS","B1","B1","B0","B0","PISd",0,0,0,0,"B1", 0,15,   0, 0,    0,"AIS","N/A    ","OK ","OK ",    000906.018,    -055.987,    -169.986,    0014.812,    0043.497
"FRM_AIS_EDR_2062.DAT           ",2005-08-23T02:45:01.89 ,"1/0072845096.50172",    0,   28,  213808,"AIS","B1","B1","B0","B0","PISd",0,0,0,0,"B1", 0,15,   0, 0,    0,"AIS","N/A    ","OK ","OK ",    000896.671,    -055.619,    -169.947,    0014.817,    0043.360
"FRM_AIS_EDR_2062.DAT           ",2005-08-23T02:45:09.43 ,"1/0072845104.20235",    0,   29,  213808,"AIS","B1","B1","B0","B0","PISd",0,0,0,0,"B1", 0,15,   0, 0,    0,"AIS","N/A    ","OK ","OK ",    000887.370,    -055.248,    -169.910,    0014.821,    0043.225
"FRM_AIS_EDR_2062.DAT           ",2005-08-23T02:45:16.97 ,"1/0072845111.55835",    0,   30,  213808,"AIS","B1","B1","B0","B0","PISd",0,0,0,0,"B1", 0,15,   0, 0,    0,"AIS","N/A    ","OK ","OK ",    000878.116,    -054.877,    -169.873,    0014.826,    0043.091
"FRM_AIS_EDR_2062.DAT           ",2005-08-23T02:45:24.52 ,"1/0072845119.25898",    0,   31,  213808,"AIS","B1","B1","B0","B0","PISd",0,0,0,0,"B1", 0,15,   0, 0,    0,"AIS","N/A    ","OK ","OK ",    000868.909,    -054.503,    -169.838,    0014.830,    0042.959
"FRM_AIS_EDR_2062.DAT           ",2005-08-23T02:45:32.06 ,"1/0072845126.61497",    0,   32,  213808,"AIS","B1","B1","B0","B0","PISd",0,0,0,0,"B1", 0,15,   0, 0,    0,"AIS","N/A    ","OK ","OK ",    000859.750,    -054.128,    -169.803,    0014.835,    0042.829
"FRM_AIS_EDR_2062.DAT           ",2005-08-23T02:45:39.60 ,"1/0072845134.31561",    0,   33,  213808,"AIS","B1","B1","B0","B0","PISd",0,0,0,0,"B1", 0,15,   0, 0,    0,"AIS","N/A    ","OK ","OK ",    000850.639,    -053.751,    -169.769,    0014.839,    0042.701
"FRM_AIS_EDR_2062.DAT           ",2005-08-23T02:45:47.15 ,"1/0072845142.01624",    0,   34,  213808,"AIS","B1","B1","B0","B0","PISd",0,0,0,0,"B1", 0,15,   0, 0,    0,"AIS","N/A    ","OK ","OK ",    000841.577,    -053.372,    -169.737,    0014.843,    0042.574
"FRM_AIS_EDR_2062.DAT           ",2005-08-23T02:45:54.69 ,"1/0072845149.37223",    0,   35,  213808,"AIS","B1","B1","B0","B0","PISd",0,0,0,0,"B1", 0,15,   0, 0,    0,"AIS","N/A    ","OK ","OK ",    000832.565,    -052.992,    -169.705,    0014.848,    0042.450
"FRM_AIS_EDR_2062.DAT           ",2005-08-23T02:46:02.23 ,"1/0072845157.07287",    0,   36,  213808,"AIS","B1","B1","B0","B0","PISd",0,0,0,0,"B1", 0,15,   0, 0,    0,"AIS","N/A    ","OK ","OK ",    000823.603,    -052.611,    -169.673,    0014.851,    0042.327
"FRM_AIS_EDR_2062.DAT           ",2005-08-23T02:46:09.78 ,"1/0072845164.42886",    0,   37,  213808,"AIS","B1","B1","B0","B0","PISd",0,0,0,0,"B1", 0,15,   0, 0,    0,"AIS","N/A    ","OK ","OK ",    000814.692,    -052.227,    -169.643,    0014.856,    0042.206
"FRM_AIS_EDR_2062.DAT           ",2005-08-23T02:46:17.32 ,"1/0072845172.12949",    0,   38,  213808,"AIS","B1","B1","B0","B0","PISd",0,0,0,0,"B1", 0,15,   0, 0,    0,"AIS","N/A    ","OK ","OK ",    000805.832,    -051.842,    -169.614,    0014.860,    0042.088
"FRM_AIS_EDR_2062.DAT           ",2005-08-23T02:46:24.86 ,"1/0072845179.48549",    0,   39,  213808,"AIS","B1","B1","B0","B0","PISd",0,0,0,0,"B1", 0,15,   0, 0,    0,"AIS","N/A    ","OK ","OK ",    000797.025,    -051.456,    -169.585,    0014.864,    0041.971
"FRM_AIS_EDR_2062.DAT           ",2005-08-23T02:46:32.41 ,"1/0072845187.18612",    0,   40,  213808,"AIS","B1","B1","B0","B0","PISd",0,0,0,0,"B1", 0,15,   0, 0,    0,"AIS","N/A    ","OK ","OK ",    000788.270,    -051.067,    -169.557,    0014.867,    0041.857
"FRM_AIS_EDR_2062.DAT           ",2005-08-23T02:46:39.95 ,"1/0072845194.54211",    0,   41,  213808,"AIS","B1","B1","B0","B0","PISd",0,0,0,0,"B1", 0,15,   0, 0,    0,"AIS","N/A    ","OK ","OK ",    000779.569,    -050.677,    -169.530,    0014.871,    0041.745
"FRM_AIS_EDR_2062.DAT           ",2005-08-23T02:46:47.49 ,"1/0072845202.24275",    0,   42,  213808,"AIS","B1","B1","B0","B0","PISd",0,0,0,0,"B1", 0,15,   0, 0,    0,"AIS","N/A    ","OK ","OK ",    000770.922,    -050.286,    -169.503,    0014.875,    0041.635
"FRM_AIS_EDR_2062.DAT           ",2005-08-23T02:46:55.04 ,"1/0072845209.59874",    0,   43,  213808,"AIS","B1","B1","B0","B0","PISd",0,0,0,0,"B1", 0,15,   0, 0,    0,"AIS","N/A    ","OK ","OK ",    000762.330,    -049.893,    -169.477,    0014.879,    0041.527
"FRM_AIS_EDR_2062.DAT           ",2005-08-23T02:47:02.58 ,"1/0072845217.29937",    0,   44,  213808,"AIS","B1","B1","B0","B0","PISd",0,0,0,0,"B1", 0,15,   0, 0,    0,"AIS","N/A    ","OK ","OK ",    000753.793,    -049.498,    -169.452,    0014.883,    0041.422
"FRM_AIS_EDR_2062.DAT           ",2005-08-23T02:47:10.12 ,"1/0072845225.00001",    0,   45,  213808,"AIS","B1","B1","B0","B0","PISd",0,0,0,0,"B1", 0,15,   0, 0,    0,"AIS","N/A    ","OK ","OK ",    000745.312,    -049.101,    -169.428,    0014.886,    0041.320
"FRM_AIS_EDR_2062.DAT           ",2005-08-23T02:47:17.67 ,"1/0072845232.35600",    0,   46,  213808,"AIS","B1","B1","B0","B0","PISd",0,0,0,0,"B1", 0,15,   0, 0,    0,"AIS","N/A    ","OK ","OK ",    000736.887,    -048.703,    -169.404,    0014.890,    0041.219
"FRM_AIS_EDR_2062.DAT           ",2005-08-23T02:47:25.21 ,"1/0072845240.05663",    0,   47,  213808,"AIS","B1","B1","B0","B0","PISd",0,0,0,0,"B1", 0,15,   0, 0,    0,"AIS","N/A    ","OK ","OK ",    000728.520,    -048.304,    -169.381,    0014.893,    0041.122
"FRM_AIS_EDR_2062.DAT           ",2005-08-23T02:47:32.75 ,"1/0072845247.41263",    0,   48,  213808,"AIS","B1","B1","B0","B0","PISd",0,0,0,0,"B1", 0,15,   0, 0,    0,"AIS","N/A    ","OK ","OK ",    000720.211,    -047.902,    -169.358,    0014.897,    0041.027
"FRM_AIS_EDR_2062.DAT           ",2005-08-23T02:47:40.30 ,"1/0072845255.11326",    0,   49,  213808,"AIS","B1","B1","B0","B0","PISd",0,0,0,0,"B1", 0,15,   0, 0,    0,"AIS","N/A    ","OK ","OK ",    000711.961,    -047.499,    -169.336,    0014.901,    0040.935
"FRM_AIS_EDR_2062.DAT           ",2005-08-23T02:47:47.84 ,"1/0072845262.46925",    0,   50,  213808,"AIS","B1","B1","B0","B0","PISd",0,0,0,0,"B1", 0,15,   0, 0,    0,"AIS","N/A    ","OK ","OK ",    000703.770,    -047.095,    -169.315,    0014.904,    0040.845
"FRM_AIS_EDR_2062.DAT           ",2005-08-23T02:47:55.38 ,"1/0072845270.16989",    0,   51,  213808,"AIS","B1","B1","B0","B0","PISd",0,0,0,0,"B1", 0,15,   0, 0,    0,"AIS","N/A    ","OK ","OK ",    000695.639,    -046.688,    -169.294,    0014.908,    0040.759
"FRM_AIS_EDR_2062.DAT           ",2005-08-23T02:48:02.93 ,"1/0072845277.52588",    0,   52,  213808,"AIS","B1","B1","B0","B0","PISd",0,0,0,0,"B1", 0,15,   0, 0,    0,"AIS","N/A    ","OK ","OK ",    000687.569,    -046.281,    -169.274,    0014.911,    0040.675
"FRM_AIS_EDR_2062.DAT           ",2005-08-23T02:48:10.47 ,"1/0072845285.22651",    0,   53,  213808,"AIS","B1","B1","B0","B0","PISd",0,0,0,0,"B1", 0,15,   0, 0,    0,"AIS","N/A    ","OK ","OK ",    000679.560,    -045.871,    -169.254,    0014.914,    0040.594
"FRM_AIS_EDR_2062.DAT           ",2005-08-23T02:48:18.01 ,"1/0072845292.58251",    0,   54,  213808,"AIS","B1","B1","B0","B0","PISd",0,0,0,0,"B1", 0,15,   0, 0,    0,"AIS","N/A    ","OK ","OK ",    000671.613,    -045.460,    -169.235,    0014.918,    0040.516
"FRM_AIS_EDR_2062.DAT           ",2005-08-23T02:48:25.55 ,"1/0072845300.28314",    0,   55,  213808,"AIS","B1","B1","B0","B0","PISd",0,0,0,0,"B1", 0,15,   0, 0,    0,"AIS","N/A    ","OK ","OK ",    000663.729,    -045.048,    -169.216,    0014.921,    0040.441
"FRM_AIS_EDR_2062.DAT           ",2005-08-23T02:48:33.10 ,"1/0072845307.63913",    0,   56,  213808,"AIS","B1","B1","B0","B0","PISd",0,0,0,0,"B1", 0,15,   0, 0,    0,"AIS","N/A    ","OK ","OK ",    000655.908,    -044.633,    -169.198,    0014.924,    0040.370
"FRM_AIS_EDR_2062.DAT           ",2005-08-23T02:48:40.64 ,"1/0072845315.33977",    0,   57,  213808,"AIS","B1","B1","B0","B0","PISd",0,0,0,0,"B1", 0,15,   0, 0,    0,"AIS","N/A    ","OK ","OK ",    000648.151,    -044.217,    -169.181,    0014.927,    0040.301
"FRM_AIS_EDR_2062.DAT           ",2005-08-23T02:48:48.18 ,"1/0072845323.04040",    0,   58,  213808,"AIS","B1","B1","B0","B0","PISd",0,0,0,0,"B1", 0,15,   0, 0,    0,"AIS","N/A    ","OK ","OK ",    000640.459,    -043.800,    -169.164,    0014.930,    0040.236
"FRM_AIS_EDR_2062.DAT           ",2005-08-23T02:48:55.73 ,"1/0072845330.39639",    0,   59,  213808,"AIS","B1","B1","B0","B0","PISd",0,0,0,0,"B1", 0,15,   0, 0,    0,"AIS","N/A    ","OK ","OK ",    000632.832,    -043.381,    -169.147,    0014.933,    0040.174
"FRM_AIS_EDR_2062.DAT           ",2005-08-23T02:49:03.27 ,"1/0072845338.09703",    0,   60,  213808,"AIS","B1","B1","B0","B0","PISd",0,0,0,0,"B1", 0,15,   0, 0,    0,"AIS","N/A    ","OK ","OK ",    000625.271,    -042.960,    -169.131,    0014.937,    0040.116
"FRM_AIS_EDR_2062.DAT           ",2005-08-23T02:49:10.81 ,"1/0072845345.45302",    0,   61,  213808,"AIS","B1","B1","B0","B0","PISd",0,0,0,0,"B1", 0,15,   0, 0,    0,"AIS","N/A    ","OK ","OK ",    000617.777,    -042.538,    -169.116,    0014.940,    0040.060
"FRM_AIS_EDR_2062.DAT           ",2005-08-23T02:49:18.36 ,"1/0072845353.15365",    0,   62,  213808,"AIS","B1","B1","B0","B0","PISd",0,0,0,0,"B1", 0,15,   0, 0,    0,"AIS","N/A    ","OK ","OK ",    000610.351,    -042.115,    -169.101,    0014.943,    0040.009
"FRM_AIS_EDR_2062.DAT           ",2005-08-23T02:49:25.90 ,"1/0072845360.50965",    0,   63,  213808,"AIS","B1","B1","B0","B0","PISd",0,0,0,0,"B1", 0,15,   0, 0,    0,"AIS","N/A    ","OK ","OK ",    000602.993,    -041.689,    -169.086,    0014.946,    0039.961
"FRM_AIS_EDR_2062.DAT           ",2005-08-23T02:49:33.44 ,"1/0072845368.21028",    0,   64,  213808,"AIS","B1","B1","B0","B0","PISd",0,0,0,0,"B1", 0,15,   0, 0,    0,"AIS","N/A    ","OK ","OK ",    000595.703,    -041.262,    -169.072,    0014.949,    0039.916
"FRM_AIS_EDR_2062.DAT           ",2005-08-23T02:49:40.99 ,"1/0072845375.56627",    0,   65,  213808,"AIS","B1","B1","B0","B0","PISd",0,0,0,0,"B1", 0,15,   0, 0,    0,"AIS","N/A    ","OK ","OK ",    000588.483,    -040.834,    -169.058,    0014.952,    0039.875
"FRM_AIS_EDR_2062.DAT           ",2005-08-23T02:49:48.53 ,"1/0072845383.26690",    0,   66,  213808,"AIS","B1","B1","B0","B0","PISd",0,0,0,0,"B1", 0,15,   0, 0,    0,"AIS","N/A    ","OK ","OK ",    000581.333,    -040.404,    -169.044,    0014.955,    0039.838
"FRM_AIS_EDR_2062.DAT           ",2005-08-23T02:49:56.07 ,"1/0072845390.62290",    0,   67,  213808,"AIS","B1","B1","B0","B0","PISd",0,0,0,0,"B1", 0,15,   0, 0,    0,"AIS","N/A    ","OK ","OK ",    000574.254,    -039.973,    -169.031,    0014.957,    0039.805
"FRM_AIS_EDR_2062.DAT           ",2005-08-23T02:50:03.62 ,"1/0072845398.32353",    0,   68,  213808,"AIS","B1","B1","B0","B0","PISd",0,0,0,0,"B1", 0,15,   0, 0,    0,"AIS","N/A    ","OK ","OK ",    000567.247,    -039.540,    -169.019,    0014.960,    0039.775
"FRM_AIS_EDR_2062.DAT           ",2005-08-23T02:50:11.16 ,"1/0072845406.02416",    0,   69,  213808,"AIS","B1","B1","B0","B0","PISd",0,0,0,0,"B1", 0,15,   0, 0,    0,"AIS","N/A    ","OK ","OK ",    000560.312,    -039.105,    -169.007,    0014.963,    0039.749
"FRM_AIS_EDR_2062.DAT           ",2005-08-23T02:50:18.70 ,"1/0072845413.38016",    0,   70,  213808,"AIS","B1","B1","B0","B0","PISd",0,0,0,0,"B1", 0,15,   0, 0,    0,"AIS","N/A    ","OK ","OK ",    000553.449,    -038.669,    -168.995,    0014.966,    0039.727
"FRM_AIS_EDR_2062.DAT           ",2005-08-23T02:50:26.25 ,"1/0072845421.08079",    0,   71,  213808,"AIS","B1","B1","B0","B0","PISd",0,0,0,0,"B1", 0,15,   0, 0,    0,"AIS","N/A    ","OK ","OK ",    000546.661,    -038.232,    -168.983,    0014.969,    0039.710
"FRM_AIS_EDR_2062.DAT           ",2005-08-23T02:50:33.79 ,"1/0072845428.43678",    0,   72,  213808,"AIS","B1","B1","B0","B0","PISd",0,0,0,0,"B1", 0,15,   0, 0,    0,"AIS","N/A    ","OK ","OK ",    000539.946,    -037.793,    -168.972,    0014.972,    0039.696
"FRM_AIS_EDR_2062.DAT           ",2005-08-23T02:50:41.33 ,"1/0072845436.13742",    0,   73,  213808,"AIS","B1","B1","B0","B0","PISd",0,0,0,0,"B1", 0,15,   0, 0,    0,"AIS","N/A    ","OK ","OK ",    000533.307,    -037.352,    -168.961,    0014.974,    0039.686
"FRM_AIS_EDR_2062.DAT           ",2005-08-23T02:50:48.88 ,"1/0072845443.49341",    0,   74,  213808,"AIS","B1","B1","B0","B0","PISd",0,0,0,0,"B1", 0,15,   0, 0,    0,"AIS","N/A    ","OK ","OK ",    000526.743,    -036.910,    -168.951,    0014.977,    0039.680
"FRM_AIS_EDR_2062.DAT           ",2005-08-23T02:50:56.42 ,"1/0072845451.19404",    0,   75,  213808,"AIS","B1","B1","B0","B0","PISd",0,0,0,0,"B1", 0,15,   0, 0,    0,"AIS","N/A    ","OK ","OK ",    000520.256,    -036.467,    -168.941,    0014.980,    0039.679
"FRM_AIS_EDR_2062.DAT           ",2005-08-23T02:51:03.96 ,"1/0072845458.55004",    0,   76,  213808,"AIS","B1","B1","B0","B0","PISd",0,0,0,0,"B1", 0,15,   0, 0,    0,"AIS","N/A    ","OK ","OK ",    000513.845,    -036.022,    -168.931,    0014.982,    0039.682
"FRM_AIS_EDR_2062.DAT           ",2005-08-23T02:51:11.51 ,"1/0072845466.25067",    0,   77,  213808,"AIS","B1","B1","B0","B0","PISd",0,0,0,0,"B1", 0,15,   0, 0,    0,"AIS","N/A    ","OK ","OK ",    000507.513,    -035.576,    -168.922,    0014.985,    0039.689
"FRM_AIS_EDR_2062.DAT           ",2005-08-23T02:51:19.05 ,"1/0072845473.60666",    0,   78,  213808,"AIS","B1","B1","B0","B0","PISd",0,0,0,0,"B1", 0,15,   0, 0,    0,"AIS","N/A    ","OK ","OK ",    000501.258,    -035.128,    -168.913,    0014.988,    0039.700
"FRM_AIS_EDR_2062.DAT           ",2005-08-23T02:51:26.59 ,"1/0072845481.30730",    0,   79,  213808,"AIS","B1","B1","B0","B0","PISd",0,0,0,0,"B1", 0,15,   0, 0,    0,"AIS","N/A    ","OK ","OK ",    000495.083,    -034.679,    -168.904,    0014.991,    0039.715
"FRM_AIS_EDR_2062.DAT           ",2005-08-23T02:51:34.13 ,"1/0072845489.00793",    0,   80,  213808,"AIS","B1","B1","B0","B0","PISd",0,0,0,0,"B1", 0,15,   0, 0,    0,"AIS","N/A    ","OK ","OK ",    000488.987,    -034.228,    -168.895,    0014.993,    0039.735
"FRM_AIS_EDR_2062.DAT           ",2005-08-23T02:51:41.68 ,"1/0072845496.36392",    0,   81,  213808,"AIS","B1","B1","B0","B0","PISd",0,0,0,0,"B1", 0,15,   0, 0,    0,"AIS","N/A    ","OK ","OK ",    000482.971,    -033.776,    -168.887,    0014.996,    0039.760
"FRM_AIS_EDR_2062.DAT           ",2005-08-23T02:51:49.22 ,"1/0072845504.06456",    0,   82,  213808,"AIS","B1","B1","B0","B0","PISd",0,0,0,0,"B1", 0,15,   0, 0,    0,"AIS","N/A    ","OK ","OK ",    000477.037,    -033.323,    -168.879,    0014.998,    0039.788
"FRM_AIS_EDR_2062.DAT           ",2005-08-23T02:51:56.76 ,"1/0072845511.42055",    0,   83,  213808,"AIS","B1","B1","B0","B0","PISd",0,0,0,0,"B1", 0,15,   0, 0,    0,"AIS","N/A    ","OK ","OK ",    000471.184,    -032.868,    -168.872,    0015.001,    0039.821
"FRM_AIS_EDR_2062.DAT           ",2005-08-23T02:52:04.31 ,"1/0072845519.12118",    0,   84,  213808,"AIS","B1","B1","B0","B0","PISd",0,0,0,0,"B1", 0,15,   0, 0,    0,"AIS","N/A    ","OK ","OK ",    000465.413,    -032.412,    -168.865,    0015.003,    0039.859
"FRM_AIS_EDR_2062.DAT           ",2005-08-23T02:52:11.85 ,"1/0072845526.47718",    0,   85,  213808,"AIS","B1","B1","B0","B0","PISd",0,0,0,0,"B1", 0,15,   0, 0,    0,"AIS","N/A    ","OK ","OK ",    000459.725,    -031.955,    -168.857,    0015.006,    0039.901
"FRM_AIS_EDR_2062.DAT           ",2005-08-23T02:52:19.39 ,"1/0072845534.17781",    0,   86,  213808,"AIS","B1","B1","B0","B0","PISd",0,0,0,0,"B1", 0,15,   0, 0,    0,"AIS","N/A    ","OK ","OK ",    000454.121,    -031.496,    -168.851,    0015.008,    0039.948
"FRM_AIS_EDR_2062.DAT           ",2005-08-23T02:52:26.94 ,"1/0072845541.53380",    0,   87,  213808,"AIS","B1","B1","B0","B0","PISd",0,0,0,0,"B1", 0,15,   0, 0,    0,"AIS","N/A    ","OK ","OK ",    000448.601,    -031.036,    -168.844,    0015.011,    0039.999
"FRM_AIS_EDR_2062.DAT           ",2005-08-23T02:52:34.48 ,"1/0072845549.23444",    0,   88,  213808,"AIS","B1","B1","B0","B0","PISd",0,0,0,0,"B1", 0,15,   0, 0,    0,"AIS","N/A    ","OK ","OK ",    000443.166,    -030.575,    -168.838,    0015.013,    0040.055
"FRM_AIS_EDR_2062.DAT           ",2005-08-23T02:52:42.02 ,"1/0072845556.59043",    0,   89,  213808,"AIS","B1","B1","B0","B0","PISd",0,0,0,0,"B1", 0,15,   0, 0,    0,"AIS","N/A    ","OK ","OK ",    000437.816,    -030.112,    -168.832,    0015.016,    0040.116
"FRM_AIS_EDR_2062.DAT           ",2005-08-23T02:52:49.57 ,"1/0072845564.29106",    0,   90,  213808,"AIS","B1","B1","B0","B0","PISd",0,0,0,0,"B1", 0,15,   0, 0,    0,"AIS","N/A    ","OK ","OK ",    000432.552,    -029.649,    -168.826,    0015.018,    0040.181